www.pogodaiklimat.ru

Погода и климат >> Архив погоды >> Таиланд >> Ко Сичан


ПОГОДА на Ко Сичан

  • Прогноз погоды на Ко Сичан
  • Монитор погоды на Ко Сичан

АРХИВ ПОГОДЫ на Ко Сичан

Время (UTC), дата Ветер
(напр.,м/с)
 
Видим.   Явления Облачность Т
(С)
Тd
(С)
f
(%)
Тe
(С)
Тes
(С)
Комфортность P
(гПа)
Po
(гПа)
Тmin
(С)
Tmax
(С)
R
(мм)
R24
(мм)
S
(см)
18 15.07 штиль 0 10 км 5/1 600 м
[Sc Cs]
+29.0 +23.9 74 +40 +40 очень
душно
1006.0 1002.9
21 15.07 штиль 0 10 км 5/0
[Ac lent Cs]
+28.8 +23.7 74 +39 +39 очень
душно
1005.2 1002.1
00 16.07 штиль 0 12 км 4/0
[Cs]
+29.0 +23.5 72 +39 +41 очень
душно
1006.2 1003.1 +27.8
03 16.07 Ю 3 12 км 4/0
[Cs]
+31.0 +24.3 68 +43 +55 опасность
перегрева
1006.9 1003.8
06 16.07 Ю 3 12 км 4/1 600 м
[Cu hum Cs]
+31.8 +24.2 64 +44 +59 опасность
перегрева
1005.7 1002.6
09 16.07 ЮЗ 3 12 км 4/0
[Ac lent Cs]
+31.5 +22.9 60 +41 +47 опасность
перегрева
1002.9 999.8
12 16.07 Ю 3 10 км 5/0
[Ac lent Cs]
+30.0 +24.3 72 +42 +42 опасность
перегрева
1003.4 1000.3 +32.3
15 16.07 штиль 0 10 км 4/0
[Cs]
+30.0 +25.8 78 +45 +45 опасность
перегрева
1005.4 1002.3
18 16.07 СЗ 4 10 км 5/3 600 м
[Sc Cs]
+30.0 +23.8 69 +41 +41 опасность
перегрева
1005.3 1002.2
21 16.07 С 5 10 км 5/3 600 м
[Sc Cs]
+29.5 +23.7 71 +40 +40 очень
душно
1003.8 1000.7
00 17.07 Ю 3 12 км 8/4 600 м
[Sc Cs]
+29.5 +24.5 75 +42 +42 опасность
перегрева
1004.3 1001.2 +28.2
03 17.07 штиль 0 12 км 5/3 600 м
[Cu hum Cs]
+31.0 +24.6 69 +44 +58 опасность
перегрева
1005.7 1002.6
06 17.07 Ю 3 12 км 6/3 600 м
[Cu hum Cs]
+31.5 +24.4 66 +44 +55 опасность
перегрева
1004.5 1001.4
09 17.07 штиль 0 12 км 8/4 600 м
[Sc Cs]
+31.8 +25.0 67 +45 +51 опасность
перегрева
1002.5 999.5
12 17.07 штиль 0 10 км 8/3 600 м
[Sc Ac As Cs]
+30.0 +24.7 73 +43 +43 опасность
перегрева
1002.9 999.8 +32.0
15 17.07 штиль 0 10 км 8/3 600 м
[Sc Ac As Cs]
+29.5 +24.5 75 +42 +42 опасность
перегрева
1005.0 1001.9
18 17.07 штиль 0 10 км 8/3 600 м
[Sc Ac As Cs]
+29.0 +24.7 78 +41 +41 опасность
перегрева
1004.9 1001.8
21 17.07 штиль 0 10 км 6/3 600 м
[Sc Cs]
+29.0 +23.9 74 +40 +40 очень
душно
1003.1 1000.0
00 18.07 штиль 0 12 км 8/3 600 м
[Sc Ac As Cs]
+29.0 +23.9 74 +40 +41 очень
душно
1004.4 1001.3 +28.1
03 18.07 штиль 0 10 км 8/4 600 м
[Sc Ac As Cs]
+31.0 +23.8 66 +43 +51 опасность
перегрева
1005.0 1001.9
06 18.07 штиль 0 10 км ясно +32.0 +24.9 66 +45 +74 опасность
перегрева
1001.0 998.0
09 18.07 Ю 3 10 км 4/1 600 м
[Cu med, cong Ac lent Cs]
+31.0 +23.8 66 +43 +47 опасность
перегрева
1002.8 999.7
12 18.07 Ю 3 10 км 8/3 600 м
[Cu med, cong Ac lent Cs]
+29.7 +25.2 77 +43 +43 опасность
перегрева
1003.7 1000.6 +32.5
15 18.07 ЮЗ 5 10 км 8/3 600 м
[Cu med, cong Ac lent Cs]
+29.7 +25.9 80 +44 +44 опасность
перегрева
1004.7 1001.6
18 18.07 СЗ 3 10 км 6/1 600 м
[Cu med, cong Ac lent Cs]
+29.5 +26.0 81 +44 +44 опасность
перегрева
1004.1 1001.0
21 18.07 штиль 0 10 км 6/1 600 м
[Cu med, cong Ac lent Cs]
+29.0 +26.5 86 +44 +44 опасность
перегрева
1003.0 999.9
00 19.07 штиль 0 10 км 6/1 600 м
[Cu hum Cs]
+30.0 +25.8 78 +45 +46 опасность
перегрева
1004.1 1001.0 +28.0
03 19.07 штиль 0 10 км 5/1 600 м
[Cu med, cong Cs]
+31.2 +24.5 68 +44 +61 опасность
перегрева
1005.2 1002.1
06 19.07 Ю 3 12 км 5/1 600 м
[Cu med, cong Cs]
+32.0 +24.9 66 +45 +60 опасность
перегрева
1005.0 1001.9
09 19.07 З 5 10 км 8/3 600 м
[Cu med, cong Cs]
+30.5 +24.8 72 +44 +46 опасность
перегрева
1003.1 1000.0
12 19.07 СЗ 5 10 км 8/4 600 м
[Sc Ac As Cs]
+29.5 +24.5 75 +42 +42 опасность
перегрева
1004.4 1001.3 +32.7
15 19.07 штиль 0 10 км 6/3 600 м
[Cu med, cong Ac lent Cs]
+29.0 +25.5 81 +43 +43 опасность
перегрева
1006.5 1003.3
18 19.07 ЮЗ 3 10 км 6/3 600 м
[Cu med, cong Ac lent Cs]
+28.5 +25.7 85 +42 +42 опасность
перегрева
1005.4 1002.3
21 19.07 штиль 0 10 км 6/1 600 м
[Cu med, cong Ac lent Cs]
+29.2 +25.4 80 +43 +43 опасность
перегрева
1004.8 1001.7
00 20.07 штиль 0 10 км 8/3 600 м
[Cu med, cong Ac lent Cs]
+29.0 +24.7 78 +41 +42 опасность
перегрева
1005.5 1002.4 +28.2
03 20.07 Ю 3 12 км 3/1 600 м
[Cu hum Cs]
+30.8 +23.9 67 +42 +53 опасность
перегрева
1006.6 1003.5
06 20.07 Ю 3 12 км 3/1 600 м
[Cu med, cong Ci fib]
+32.0 +24.1 63 +44 +59 опасность
перегрева
1005.2 1002.1
09 20.07 штиль 0 10 км 8/4 600 м
[Sc Ac As Cs]
+30.8 +24.7 70 +44 +48 опасность
перегрева
1004.7 1001.6
12 20.07 З 3 10 км 8/4 600 м
[Sc Ac As Cs]
+29.5 +24.5 75 +42 +42 опасность
перегрева
1005.7 1002.6 +32.7
15 20.07 штиль 0 10 км 8/4 600 м
[Sc Ac As Cs]
+29.2 +24.6 76 +41 +41 опасность
перегрева
1007.6 1004.4
18 20.07 штиль 0 10 км 8/1 600 м
[Cu med, cong Ac lent Cs]
+29.0 +25.3 80 +42 +42 опасность
перегрева
1007.2 1004.0
21 20.07 ЮЗ 3 10 км 8/4 600 м
[Sc Ac As Cs]
+29.0 +26.2 85 +44 +44 опасность
перегрева
1006.6 1003.5
00 21.07 штиль 0 10 км 8/3 600 м
[Cu med, cong Cs]
+29.0 +25.2 80 +42 +43 опасность
перегрева
1008.5 1005.4 +28.3
03 21.07 З 4 12 км 8/4 600 м
[Sc Ac As Cs]
+31.0 +24.6 69 +44 +48 опасность
перегрева
1008.5 1005.4
06 21.07 ЮЗ 3 12 км 8/3 600 м
[Sc Ac As Cs]
+31.3 +24.9 69 +45 +53 опасность
перегрева
1007.9 1004.8
09 21.07 ЮЗ 3 12 км 8/3 600 м
[Sc Ac As Cs]
+31.5 +25.1 69 +45 +48 опасность
перегрева
1006.2 1003.1
12 21.07 ЮЗ 4 10 км 8/4 600 м
[Sc Ac As Cs]
+29.5 +25.5 79 +43 +43 опасность
перегрева
1006.6 1003.5 +32.3
15 21.07 штиль 0 10 км 8/3 600 м
[Sc Ac As Cs]
+27.5 +24.8 85 +39 +39 очень
душно
1008.3 1005.1
18 21.07 штиль 0 10 км 8/3 600 м
[Sc Ac As Cs]
+28.3 +25.0 82 +41 +41 опасность
перегрева
1008.0 1004.9
21 21.07 штиль 0 10 км 8/3 600 м
[Sc Ac As Cs]
+28.5 +24.2 78 +40 +40 очень
душно
1007.3 1004.2
00 22.07 штиль 0 12 км 8/3 600 м
[Sc Ac As Cs]
+29.0 +23.9 74 +40 +41 очень
душно
1008.1 1005.0 +27.0
03 22.07 штиль 0 12 км 9/4 600 м
[Sc Ac As Cs]
+31.0 +24.6 69 +44 +51 опасность
перегрева
1009.2 1006.1
06 22.07 штиль 0 12 км 8/3 600 м
[Sc Ac As Cs]
+32.5 +24.7 64 +46 +59 опасность
перегрева
1008.3 1005.2
09 22.07 З 3 12 км 8/3 600 м
[Sc Ac As Cs]
+31.8 +24.2 64 +44 +47 опасность
перегрева
1005.5 1002.4
12 22.07 З 3 10 км 8/3 600 м
[Sc Ac As Cs]
+30.3 +25.6 76 +45 +45 опасность
перегрева
1005.7 1002.7 +32.5
15 22.07 штиль 0 10 км 8/3 600 м
[Sc Ac As Cs]
+29.2 +25.4 80 +43 +43 опасность
перегрева
1007.7 1004.6

 

Местоположение метеостанции Ко Сичан (Таиланд): широта 13.17 долгота 100.80 высота над уровнем моря 26 м.

В архиве по умолчанию представлена погода на Ко Сичан за последнюю неделю. Архивные данные за месяц целиком и за предыдущие месяцы, начиная с января 2011 года, Вы можете получить, выбрав интересующий диапазон дат из раскрывающегося списка и нажав кнопку "Ввод!".


*Определитесь, кто Вы:
робот инопланетянин человек

Внимание! Время в таблицах - всемирное. Для получения местного времени необходимо прибавить поправку, которая равна 7 ч.

Смотрите также архив погоды в соседних городах и на ближайших метеорологических станциях:

Погода в Паттайе (Таиланд) (29 км)
Погода в Чонбури (Таиланд) (30 км)
Погода в Ратбури (Таиланд) (30 км)
Погода в Бангкок Пилот (Таиланд) (32 км)
Погода в Самутрудкан Агромете (Таиланд) (39 км)
Погода в Аэропорту Суварнабхуми (Таиланд) (57 км)
Погода в Саттахипе (Таиланд) (58 км)
Погода в Бангна Агромете (Таиланд) (59 км)
Погода в Хуайпонг Агромете (Таиланд) (61 км)
Погода в Бангкоке 2 (Таиланд) (64 км)

Пояснения к столбцам:

Ветер - указаны скорость ветра в м/с - средняя за 10 мин, порывы в срок и между сроками (в фигурных скобках) и направление, откуда дует ветер: С - северный, СВ - северо-восточный, В - восточный, ЮВ - юго-восточный, Ю - южный, ЮЗ - юго-западный, З - западный, СЗ - северо-западный.
Видимость - горизонтальная дальность видимости в метрах или километрах. При видимости от 1 до 10 км при отсутствии осадков обычно наблюдается дымка, при ухудшении видимости до 1 км и менее - туман. В сухую погоду видимость может ухудшаться дымом, пылью или мглою.
Явления - указаны атмосферные явления, наблюдавшиеся в срок или в последний час перед сроком; фигурными скобками обозначены явления, наблюдавшиеся между сроками (за 1-3 часа до срока); квадратными скобками обозначены град или гололедные отложения с указанием их диаметра в мм.
Облачность - указаны через наклонную черту общая и нижняя облачность в баллах и высота нижней границы облаков в метрах; квадратными скобками обозначены формы облаков: Ci - перистые, Cs - перисто-слоистые, Cc - перисто-кучевые, Ac - высококучевые, As - высокослоистые, Sc - слоисто-кучевые, Ns - слоисто-дождевые, Cu - кучевые, Cb - кучево-дождевые. Подробнее классификацию облаков см. в Атласе облаков (PDF).
T - Температура воздуха - температура, измеренная на высоте 2 м над землей.
Td - Температура точки росы - температура, при понижении до которой содержащийся в воздухе водяной пар достигнет насыщения.
f - Относительная влажность воздуха - влажноcть воздуха, измеренная на высоте 2 м над землей.
Te - Эффективная температура - температура, которую ощущает одетый по сезону человек в тени. Характеристика душности погоды. При расчете учитывается влияние влажности воздуха и скорости ветра на теплоощущения человека.
Tes - Эффективная температура на солнце - температура, которую ощущает человек, с поправкой на солнечный нагрев. Характеристика знойности погоды. Зависит от высоты солнца над горизонтом, облачности и скорости ветра. Ночью, в пасмурную погоду, а также при ветре 12 м/с и более поправка равна нулю.
P - Атмосферное давление - приведенное к уровню моря атмосферное давление.
Po - Атмосферное давление - измеренное на уровне метеостанции атмосферное давление.
Tmin - Минимальная температура - минимум температуры воздуха на высоте 2 м над землей.
Tmax - Максимальная температура - максимум температуры воздуха на высоте 2 м над землей.
R - Количество осадков - Количество выпавших осадков за период времени, мм. При наведении курсора мыши на число - период времени, за который выпало указанное количество осадков.
R24 - Количество осадков - Количество выпавших осадков за 24 часа, мм.
S - Снежный покров - Высота снежного покрова, см. При наведении курсора мыши на число - состояние снежного покрова и степень покрытия местности в баллах.